User: anonymous   Login
Location: Spradlin Observatory
(33.4706°N, 86.3221°W)
Time: 19:13:13
(UTC-05:00)
Language:

COSMOS 2406 - Orbit

View from above orbital plane
View from above orbital plane
View from above satellite
View from above satellite

Ground track
Ground track

The orbit data is extracted from the following two-line orbital elements,

1 28352U 04021A   16269.21989589 -.00000202  00000-0 -85343-4 0  9995
2 28352  71.0017 317.9218 0013856 145.9736 214.2276 14.11444181633451
Epoch (UTC): 25 September 2016 05:16:39
Eccentricity: 0.0013856
inclination: 71.0017°
perigee height: 844 km
apogee height: 864 km
right ascension of ascending node: 317.9218°
argument of perigee: 145.9736°
revolutions per day: 14.11444181
mean anomaly at epoch: 214.2276°
orbit number at epoch: 63345

The dashed part of the orbit path shows where the satellite is in the earth's shadow,  

DLR